TimeEET,TemperatureF,Dew PointF,Humidity,Sea Level PressureIn,VisibilityMPH,Wind Direction,Wind SpeedMPH,Gust SpeedMPH,PrecipitationIn,Events,Conditions,WindDirDegrees,DateUTC
12:00 AM,78.8,75.2,89,29.92,-9999.0,North,5.8,-,N/A,,Clear,350,2013-09-13 22:00:00
1:00 AM,78.8,75.2,89,29.92,6.2,North,8.1,-,N/A,,Scattered Clouds,350,2013-09-13 23:00:00
2:00 AM,78,76,91,29.91,6,North,8.1,,,,Partly Cloudy,350,2013-09-14 00:00:00
2:00 AM,78.8,75.2,89,29.89,6.2,North,8.1,-,N/A,,Scattered Clouds,350,2013-09-14 00:00:00
3:00 AM,78.8,75.2,89,29.89,6.2,North,4.6,-,N/A,,Scattered Clouds,360,2013-09-14 01:00:00
4:00 AM,78.8,73.4,83,29.89,-9999.0,North,4.6,-,N/A,,Clear,360,2013-09-14 02:00:00
5:00 AM,77.0,73.4,89,29.89,-9999.0,North,3.5,-,N/A,,Clear,360,2013-09-14 03:00:00
6:00 AM,77.0,73.4,89,29.89,-9999.0,North,4.6,-,N/A,,Clear,360,2013-09-14 04:00:00
7:00 AM,80.6,73.4,79,29.92,-9999.0,North,4.6,-,N/A,,Clear,360,2013-09-14 05:00:00
8:00 AM,82,74,71,29.95,6,North,4.6,,,,,0,2013-09-14 06:00:00
8:00 AM,82.4,73.4,74,29.95,-9999.0,North,4.6,-,N/A,,Clear,350,2013-09-14 06:00:00
9:00 AM,84.2,73.4,70,29.95,-9999.0,NNW,8.1,-,N/A,,Clear,340,2013-09-14 07:00:00
10:00 AM,87.8,71.6,58,29.95,-9999.0,North,10.4,-,N/A,,Clear,360,2013-09-14 08:00:00
11:00 AM,87.8,71.6,58,29.98,-9999.0,North,11.5,-,N/A,,Clear,360,2013-09-14 09:00:00
12:00 PM,91.4,73.4,55,29.95,-9999.0,North,11.5,-,N/A,,Clear,360,2013-09-14 10:00:00
1:00 PM,89.6,69.8,52,29.95,-9999.0,North,13.8,-,N/A,,Clear,350,2013-09-14 11:00:00
2:00 PM,89,69,43,29.94,6,North,16.1,,,,,350,2013-09-14 12:00:00
2:00 PM,89.6,69.8,52,29.95,-9999.0,North,16.1,-,N/A,,Clear,350,2013-09-14 12:00:00
3:00 PM,87.8,69.8,55,29.95,-9999.0,North,15.0,-,N/A,,Clear,350,2013-09-14 13:00:00
4:00 PM,86.0,69.8,58,29.92,-9999.0,North,15.0,-,N/A,,Clear,360,2013-09-14 14:00:00
5:00 PM,84.2,71.6,66,29.92,-9999.0,North,16.1,-,N/A,,Clear,350,2013-09-14 15:00:00
6:00 PM,80.6,71.6,74,29.92,-9999.0,NNW,12.7,-,N/A,,Clear,340,2013-09-14 16:00:00
7:00 PM,80.6,71.6,74,29.92,-9999.0,North,9.2,-,N/A,,Clear,350,2013-09-14 17:00:00
8:00 PM,80,72,70,29.95,6,NNW,9.2,,,,,340,2013-09-14 18:00:00
8:00 PM,80.6,71.6,74,29.95,-9999.0,NNW,9.2,-,N/A,,Clear,340,2013-09-14 18:00:00
9:00 PM,78.8,73.4,83,29.95,-9999.0,NNW,8.1,-,N/A,,Clear,340,2013-09-14 19:00:00
10:00 PM,78.8,73.4,83,29.95,-9999.0,NNW,8.1,-,N/A,,Clear,340,2013-09-14 20:00:00
11:00 PM,78.8,73.4,83,29.95,-9999.0,NNW,9.2,-,N/A,,Clear,330,2013-09-14 21:00:00